Lapse_Rate
7.1 6.5 6.5 6.5 6.5 6.5 6.5 6.5 6.5 6.5 6.5 6.5 6.5 6.5 6.5 7.2 7.5 7.4 7.5 7.7 7.8 7.9 8.4 8.4 6.8 6.7 6.5 6.3 5.8 5.5 5.4 5.0 5.0 5.7 5.7 5.5 5.6 6.0 5.9 6.1 5.8 5.4 4.7 5.1
6.5 6.5 6.5 6.5 6.5 6.5 6.5 6.5 6.5 6.5 6.5 6.5 6.5 6.4 6.5 7.0 7.1 7.5 7.5 7.6 7.9 8.1 8.2 7.6 6.5 5.9 5.5 5.5 5.1 5.1 4.6 4.6 4.1 5.2 5.2 5.4 4.9 5.4 4.9 4.8 4.9 4.8 5.2 5.0
6.5 6.5 6.7 6.5 6.5 6.5 6.5 6.5 6.5 6.5 6.5 6.5 6.5 6.5 6.5 6.6 7.2 7.5 7.8 7.9 8.0 7.9 7.9 8.0 6.2 5.6 5.7 5.2 4.5 4.4 4.2 3.8 3.6 4.1 4.7 4.9 4.8 4.5 4.6 5.2 5.3 4.3 4.8 4.7
6.5 6.7 6.5 6.4 6.5 6.5 6.5 6.5 6.5 6.5 6.5 6.5 6.5 6.5 6.5 6.5 6.5 6.8 7.4 7.7 7.9 7.9 8.1 8.2 6.4 5.8 5.6 5.4 5.4 4.4 3.7 3.3 3.5 3.7 4.4 4.4 5.4 5.7 6.4 6.2 6.2 5.5 4.9 4.6
6.6 6.5 6.5 6.5 6.5 6.5 6.5 6.5 6.5 6.5 6.5 6.5 6.5 6.5 6.5 6.5 6.5 6.5 7.1 7.5 7.8 7.9 8.1 8.1 7.1 6.0 5.7 6.1 5.4 4.5 3.9 3.6 3.7 3.6 3.9 4.7 4.7 5.9 6.2 5.8 5.1 6.4 5.5 4.7
6.5 7.0 6.6 6.5 6.5 6.5 6.5 6.5 6.5 6.5 6.5 6.5 6.5 6.5 6.5 6.5 6.5 6.5 7.0 7.5 7.6 7.9 8.0 8.2 6.9 6.0 5.4 5.8 5.9 5.2 4.0 3.4 4.0 3.9 3.9 4.1 4.6 4.9 5.9 5.6 5.9 7.1 7.5 6.9
6.5 6.5 6.5 6.7 6.5 6.5 6.5 6.5 6.5 6.5 6.5 6.5 6.5 6.5 6.5 6.5 6.5 6.6 6.7 7.3 7.6 7.7 8.0 8.1 7.4 5.6 5.0 5.3 5.1 5.3 4.1 3.8 4.0 4.0 3.7 4.2 4.4 4.8 4.4 5.5 6.9 5.6 5.5 4.6
6.5 6.5 6.4 6.5 6.5 6.5 6.5 6.5 6.5 6.5 6.5 6.5 6.5 6.5 6.5 6.5 6.9 7.2 7.4 7.5 7.8 7.8 8.1 8.2 7.7 4.7 4.7 4.5 4.3 4.4 4.3 3.8 4.3 4.2 3.8 3.9 4.2 5.3 5.9 5.5 6.2 6.6 6.6 5.5
6.5 6.5 6.5 6.5 6.5 6.5 6.4 6.5 6.5 6.5 6.5 6.5 6.5 6.5 6.5 6.4 6.5 6.8 7.1 7.4 7.5 7.7 7.9 7.9 7.7 4.6 4.5 4.2 3.8 4.0 3.9 3.6 3.9 4.1 3.8 3.1 4.0 4.1 4.8 4.8 5.2 6.6 5.3 5.7
6.5 6.5 6.5 6.5 6.7 6.5 6.5 6.5 6.5 6.6 6.5 6.5 6.5 6.5 6.5 6.5 6.5 6.5 6.7 7.0 7.3 7.7 7.9 8.1 6.8 4.3 4.3 4.1 3.8 3.7 4.1 3.5 3.5 3.7 3.8 3.7 3.5 4.0 4.4 4.9 5.2 5.0 4.9 5.1
6.5 6.5 6.5 6.5 6.5 6.5 6.5 6.5 6.5 6.5 6.5 6.5 6.5 6.5 6.5 6.5 6.5 6.5 6.6 7.2 7.3 7.5 7.7 7.9 7.5 6.1 4.7 5.1 4.5 3.8 3.8 3.5 3.3 2.9 3.3 3.4 3.9 4.1 4.1 4.5 4.4 3.5 4.2 4.8
6.5 6.5 6.5 6.5 6.5 6.5 6.5 6.5 6.5 6.5 6.6 6.5 6.5 6.5 6.5 6.5 6.6 6.9 6.9 7.0 6.7 6.2 6.2 6.0 6.1 5.8 4.6 4.6 4.8 4.4 3.8 3.7 3.3 3.1 3.1 3.5 4.4 3.6 3.3 3.6 3.1 3.6 4.3 5.1
6.5 6.5 6.6 6.5 6.5 6.5 6.5 6.5 6.5 6.5 6.5 6.5 6.5 6.5 6.5 6.7 6.7 7.0 7.0 7.1 5.4 4.4 5.1 5.4 4.8 4.6 4.5 4.1 4.2 4.8 4.1 3.8 3.1 3.2 4.1 4.1 3.4 3.3 3.5 4.0 3.7 4.0 5.2 5.4
6.3 6.5 6.5 6.5 6.5 6.5 6.5 6.5 6.5 6.5 6.5 6.5 6.5 6.5 6.5 6.5 6.5 6.8 7.1 6.9 6.2 4.1 4.3 4.5 3.4 2.7 2.8 2.6 2.8 3.5 3.8 4.1 3.7 3.5 3.4 3.3 3.8 3.7 3.9 3.9 4.4 4.7 4.9 5.6
6.5 6.5 6.5 6.5 6.5 6.5 6.5 6.5 6.5 6.5 6.5 6.5 6.5 6.5 6.5 6.5 6.5 6.8 7.1 6.2 4.7 4.2 4.2 3.1 2.3 1.9 2.2 2.7 3.4 3.8 3.4 3.2 3.3 3.3 3.7 3.0 2.8 3.2 3.9 4.2 4.4 4.7 5.2 6.0
6.5 6.5 6.5 6.5 6.5 6.5 6.5 6.5 6.5 6.5 6.5 6.5 6.5 6.5 6.5 6.8 7.1 6.9 6.8 7.0 7.0 5.9 4.6 3.2 2.4 2.1 2.9 3.1 3.5 3.8 3.3 2.9 3.1 3.2 3.1 3.0 3.1 3.4 3.6 4.0 4.5 4.9 5.3 5.2
6.5 6.5 6.5 6.5 6.5 6.5 6.5 6.5 6.5 6.5 6.5 6.5 6.5 6.5 6.5 6.5 6.7 6.9 7.0 7.0 7.1 6.8 5.7 3.0 2.9 3.2 3.7 3.8 3.7 3.6 3.0 2.9 2.9 2.9 2.9 2.8 2.8 3.0 3.1 3.7 4.4 4.3 4.5 5.2
6.5 6.5 6.5 6.5 6.5 6.5 6.5 6.5 6.5 6.5 6.5 6.6 6.5 6.5 6.6 6.6 5.9 7.0 7.2 6.4 5.4 5.5 4.4 4.1 3.6 3.9 3.6 3.6 3.2 2.5 3.0 3.0 2.9 2.7 2.6 2.5 2.7 2.9 3.2 3.7 4.0 4.5 5.2 5.6
6.5 6.5 6.5 6.5 6.5 6.5 6.5 6.5 6.5 6.5 6.5 6.5 6.5 6.5 6.9 7.1 7.2 7.1 6.6 5.3 5.1 6.9 6.8 5.5 4.0 3.7 3.1 3.0 2.5 2.5 2.9 3.1 3.1 2.7 2.3 2.3 2.7 2.9 3.5 3.9 4.0 4.5 5.4 6.1
6.5 6.5 6.5 6.4 6.5 6.5 6.5 6.5 6.9 6.5 6.5 6.6 6.7 6.4 6.7 7.0 6.5 6.5 4.9 4.5 4.5 5.5 5.5 3.9 3.6 3.5 2.6 2.4 2.9 3.0 3.0 3.3 2.6 2.2 2.0 1.7 2.0 2.6 2.9 3.4 4.2 5.0 5.9 6.4
6.5 6.5 6.5 6.5 6.5 6.5 6.5 6.6 7.0 6.5 6.5 6.6 6.9 6.8 7.0 6.5 6.5 4.7 4.5 5.5 4.1 2.9 3.1 3.5 3.8 3.6 2.4 2.9 3.6 3.1 2.6 2.0 1.3 1.4 1.5 1.5 2.0 2.8 3.4 4.3 5.1 6.1 6.8 6.8
6.5 6.5 6.5 6.5 6.5 6.5 6.8 6.7 6.5 6.4 3.8 4.2 6.9 6.7 6.6 7.1 4.0 4.8 7.2 7.5 6.7 4.6 4.6 5.2 4.1 3.6 3.3 3.3 3.5 2.1 0.8 0.2 0.2 1.2 1.7 2.1 2.8 4.3 5.0 5.5 6.3 6.6 6.8 7.1
6.5 6.5 6.5 6.5 6.5 6.6 7.0 6.7 5.9 4.8 6.4 4.6 3.9 5.4 7.1 6.4 6.6 7.2 7.6 6.9 6.7 5.7 5.5 5.0 4.1 3.0 2.8 3.0 3.9 2.3 -0.3 0.5 0.6 1.9 2.2 2.9 4.4 5.7 6.6 7.2 7.1 6.9 7.2 7.5
6.5 6.7 6.5 6.5 6.5 6.5 6.8 7.0 4.7 4.3 6.2 3.4 5.1 2.2 4.1 6.9 7.0 7.5 7.8 7.8 6.8 5.0 3.9 4.3 3.3 2.3 1.8 2.1 2.2 1.5 0.2 1.1 2.4 3.0 3.3 5.3 6.7 7.0 6.8 7.7 7.5 7.5 6.9 6.8
6.6 6.5 6.5 6.5 6.5 6.8 6.9 6.0 6.5 3.9 2.2 1.9 3.4 3.5 4.4 4.7 7.2 7.6 7.8 7.4 5.7 4.3 4.4 3.8 2.1 1.4 1.5 1.4 1.6 1.4 1.2 3.3 3.1 3.7 5.3 6.9 7.5 6.9 6.8 6.6 6.8 7.8 3.9 3.2
6.7 6.5 6.5 6.5 6.6 6.6 6.5 3.9 3.6 3.1 3.7 3.5 1.4 4.9 5.9 5.9 6.6 7.8 7.7 5.8 4.1 4.6 4.5 3.1 2.9 2.2 1.7 1.2 0.5 1.5 3.4 4.0 3.6 5.0 7.3 7.6 7.7 7.6 7.9 8.9 8.5 1.7 1.7 1.4
Wind_Speed
5 7 11 13 6 1 8 5 9 11 8 10 12 5 9 14 14 12 11 12 13 13 10 10 11 12 11 11 12 13 12 11 7 7 6 6 7 6 6 7 7 8 8 7
5 13 7 8 7 11 7 5 7 3 8 13 8 12 6 14 17 16 14 14 14 13 11 11 11 12 14 13 13 12 12 11 10 8 7 5 3 3 4 6 6 7 7 7
12 5 16 11 9 10 6 6 4 5 6 4 6 8 9 10 13 15 16 15 15 16 15 13 14 15 14 14 13 12 12 13 12 12 7 6 5 5 6 5 4 7 7 7
7 5 12 11 12 10 10 10 7 8 8 3 9 1 7 13 16 16 18 18 18 19 16 14 15 15 16 15 12 13 14 14 13 12 10 11 9 9 7 6 5 4 8 7
10 13 10 8 6 12 3 4 7 7 8 5 8 4 3 6 15 21 22 22 21 20 18 17 17 17 17 15 14 14 13 13 13 12 13 10 11 10 8 7 7 6 5 8
4 2 6 10 5 12 14 10 12 7 5 4 6 6 3 7 15 20 20 21 22 21 19 18 18 16 15 16 15 14 14 14 13 13 13 13 13 12 9 8 6 5 4 4
3 7 1 3 10 8 7 8 4 4 4 1 1 7 11 11 11 11 20 25 24 22 19 18 19 18 17 17 17 15 15 15 15 15 13 15 15 13 11 11 8 7 5 2
11 10 11 9 9 8 13 9 4 4 4 3 3 6 7 4 5 8 16 17 20 20 19 20 21 20 19 20 20 19 16 16 15 15 16 11 13 10 10 10 8 7 6 4
11 8 4 13 7 11 6 7 2 6 2 3 4 5 12 6 8 6 12 13 16 20 20 21 21 21 19 19 20 21 17 16 16 16 12 11 12 12 12 12 9 6 3 1
6 7 7 10 7 4 6 12 6 1 7 6 4 4 5 4 4 1 7 12 14 14 17 18 20 20 19 19 18 19 18 17 16 14 12 11 11 12 12 9 7 5 2 2
8 2 5 9 12 15 6 5 5 4 2 9 6 5 6 8 5 7 2 9 11 13 15 17 17 16 17 16 16 16 16 15 12 11 11 11 9 8 7 6 4 3 2 2
8 2 5 12 4 1 9 12 10 7 5 1 4 7 4 8 10 7 5 6 9 11 13 14 14 15 15 16 15 15 13 11 9 8 8 7 6 3 3 2 1 1 4 4
11 4 6 7 4 2 6 5 5 7 3 8 10 7 2 5 7 7 6 6 7 8 10 10 11 12 11 11 10 9 8 8 6 6 5 4 4 4 2 2 2 4 5 5
19 8 10 11 12 8 7 9 10 12 7 8 9 9 7 9 10 8 6 4 5 6 8 9 9 9 8 8 8 8 6 5 5 5 5 5 4 4 3 4 4 4 5 5
12 14 12 11 4 5 7 14 15 14 12 12 11 12 13 14 14 12 8 7 9 9 10 11 11 10 10 10 8 7 8 8 8 8 8 7 7 7 7 7 7 6 5 4
4 8 8 18 14 13 18 15 15 13 6 4 4 9 12 9 5 9 11 10 11 11 12 12 12 13 12 12 11 10 9 9 9 10 10 9 9 8 8 7 5 4 3 3
3 7 6 14 9 9 11 18 16 11 9 6 7 11 10 10 14 15 15 14 13 13 13 14 14 14 13 12 12 11 11 11 11 11 10 9 8 7 6 4 4 5 5 5
4 4 5 7 6 14 7 8 19 20 19 15 7 8 13 11 19 14 11 17 16 16 16 15 15 14 13 12 13 14 12 11 12 10 9 7 5 5 5 5 5 5 5 6
10 4 3 7 14 7 11 6 8 12 16 16 17 9 7 4 7 4 12 14 14 14 13 13 13 14 15 15 14 14 12 11 10 9 7 6 5 5 5 5 6 6 6 6
10 4 6 3 15 20 9 18 7 7 11 13 18 15 15 13 8 9 20 18 17 16 15 15 15 16 17 14 13 13 11 10 9 8 6 6 6 6 7 6 6 5 5 6
6 5 12 9 6 9 7 12 15 12 8 9 19 15 20 13 4 5 21 19 20 19 19 18 17 14 15 14 13 13 10 10 8 7 6 7 8 7 7 6 6 6 7 7
9 10 6 5 7 12 7 10 13 10 4 8 14 17 19 8 8 16 17 18 18 20 19 18 16 14 13 11 11 11 12 9 9 7 8 9 8 6 6 7 7 8 7 7
10 7 8 11 8 4 9 3 6 4 8 9 17 16 17 13 15 18 18 21 21 21 18 16 16 16 12 9 8 10 7 8 10 9 9 9 7 7 7 7 6 4 5 6
6 5 6 6 12 11 7 8 6 5 7 8 13 20 21 18 19 21 20 21 20 20 20 18 18 15 12 9 8 9 10 9 9 9 9 6 5 5 6 5 5 5 6 6
2 10 9 6 3 2 8 11 9 7 5 10 13 16 20 22 21 24 22 21 20 20 18 17 16 14 13 10 10 9 8 8 10 9 7 5 3 3 4 5 6 5 5 6
4 3 7 5 6 5 3 9 10 9 9 12 19 17 17 20 24 25 22 20 20 20 17 15 15 14 13 11 10 9 7 7 9 8 5 4 4 4 4 3 4 9 8 4
Wind_Direction
167 187 186 175 191 174 163 177 198 219 191 192 211 223 190 192 204 214 216 216 219 220 214 204 206 209 215 218 218 222 224 229 226 230 244 253 257 272 277 281 285 282 291 286
160 216 170 170 158 148 160 185 226 227 179 206 202 229 212 198 211 212 218 223 223 223 211 203 200 202 207 212 217 218 221 222 218 218 221 232 248 282 282 279 283 282 277 270
200 180 152 147 162 158 196 199 208 231 113 165 175 233 217 210 215 220 226 226 230 226 212 201 201 206 211 214 211 214 218 218 218 218 223 235 252 252 255 249 254 236 237 268
209 148 158 171 186 188 227 206 195 188 180 230 201 259 208 205 210 217 223 226 226 224 219 205 202 207 210 218 212 215 214 212 215 210 219 222 233 245 246 241 225 239 244 232
183 178 178 186 205 190 211 138 193 207 191 182 192 253 124 198 224 218 218 221 225 226 217 206 206 209 212 210 210 216 219 221 216 209 217 221 235 247 253 245 256 249 241 243
137 166 208 216 160 183 143 104 87 106 173 220 177 240 219 194 217 219 219 215 223 221 219 211 210 207 212 210 211 216 215 223 218 217 224 227 233 240 251 257 263 270 275 258
162 195 182 198 149 165 171 168 170 167 190 148 324 205 261 255 241 222 214 213 212 216 211 205 206 206 210 208 213 214 216 221 217 217 217 224 236 242 249 259 267 258 257 237
185 199 193 195 196 172 188 203 210 173 185 158 128 219 243 270 296 242 227 219 212 215 205 201 205 209 206 205 210 212 216 220 221 222 225 219 229 237 247 251 255 260 260 268
179 217 163 188 176 176 168 191 194 106 65 204 173 254 277 262 260 283 215 201 204 208 207 199 203 209 208 207 210 212 216 217 221 221 223 220 224 229 239 243 243 258 227 202
180 195 189 172 133 128 210 145 167 204 160 210 186 271 253 282 326 85 167 195 204 205 203 198 204 206 208 209 212 214 217 222 219 223 223 226 225 228 237 241 232 225 203 213
156 248 147 160 204 171 154 173 73 116 301 209 220 230 219 247 292 311 201 198 202 202 200 201 204 204 207 209 211 216 218 224 221 218 222 229 237 244 252 237 186 174 171 279
177 178 188 191 109 278 204 185 179 199 191 200 245 220 199 251 274 265 260 214 204 205 200 199 198 195 198 204 207 213 218 218 219 216 213 223 228 204 203 170 54 344 319 315
172 200 183 161 156 129 199 164 138 108 132 190 208 209 222 263 252 237 239 217 207 207 195 183 177 187 192 194 199 204 203 209 193 189 198 181 148 137 106 42 22 333 331 335
168 184 214 204 194 155 168 177 177 193 200 189 221 223 225 222 228 214 193 188 194 198 177 165 160 162 161 159 167 170 167 166 145 132 123 115 96 80 66 58 56 44 36 32
183 216 207 219 193 177 174 185 181 191 199 208 215 209 222 213 212 207 181 169 169 166 169 167 161 153 149 146 140 132 119 113 113 106 93 86 88 82 76 67 60 53 38 14
175 209 191 224 217 236 245 232 203 208 180 205 187 224 236 244 190 187 189 188 184 173 168 162 155 147 146 138 129 121 113 103 102 100 93 88 85 75 66 57 43 36 22 10
144 176 172 228 219 217 245 230 212 192 189 192 188 231 169 197 208 209 195 192 184 180 176 166 157 149 144 134 129 120 111 108 101 96 88 81 75 71 61 54 38 25 16 9
130 137 203 212 162 229 247 245 216 225 233 214 224 226 202 209 213 210 199 180 182 180 170 166 153 145 134 128 121 118 115 109 104 96 90 84 80 67 54 45 38 38 29 27
203 181 178 208 210 254 240 178 174 195 237 206 213 206 191 155 138 214 186 184 176 171 160 154 143 136 131 128 126 119 114 110 104 96 86 74 63 61 52 39 44 39 33 27
184 208 208 153 216 228 235 217 206 162 247 200 205 192 169 156 188 223 177 167 158 154 149 143 138 135 127 127 127 118 113 107 93 87 85 81 72 62 55 42 43 33 26 31
163 178 204 213 247 246 217 195 158 195 232 189 198 187 163 186 207 132 155 160 156 151 146 140 140 134 128 130 124 111 103 90 94 91 83 66 54 50 45 46 37 26 24 19
167 166 182 188 214 248 158 139 200 218 200 191 187 179 186 170 121 139 148 144 145 140 137 134 128 124 117 117 116 116 119 125 107 87 71 61 53 45 45 37 29 23 10 5
203 209 186 198 208 220 195 251 223 221 195 185 175 184 180 159 151 148 146 141 140 136 133 128 128 117 107 109 119 118 122 105 94 91 81 74 71 63 52 42 34 20 5 349
219 182 199 160 219 225 227 222 250 213 218 179 190 172 168 163 153 150 148 146 141 140 139 140 133 123 119 114 111 117 108 105 105 103 95 86 77 70 51 41 29 21 22 359
178 163 178 230 261 219 232 225 215 193 169 152 156 166 166 154 158 152 148 147 143 140 143 143 134 129 121 115 107 95 99 127 115 105 105 109 97 71 74 57 24 26 60 34
186 199 195 202 203 213 178 188 179 167 172 160 148 151 158 157 152 152 147 144 141 141 138 125 120 121 121 126 112 112 144 131 111 115 124 103 99 86 74 66 96 83 91 68